Wind_Speed
9 9 9 10 11 13 14 16 17 18 20 21 22 24 25 27 29 30 32 33 35 36 37 38 40 41 41 41 42 43 44 46 49 51 52 54 55 55 54 52 50 48 47 47 46 46 46 46 47 47 48 49 50 51 51 52 53 54 55 56 57 56 56 56 58 58 58 63 67 69 70 72 75 76 77 77 79 81 82 85 87 86 85 88 93 94 94
9 9 10 12 13 15 16 17 18 20 21 23 24 26 28 29 31 32 33 34 35 37 38 39 40 40 40 41 43 45 47 49 51 53 54 54 54 52 50 48 47 46 46 45 45 46 46 47 48 49 50 50 51 52 53 53 54 55 56 57 59 60 61 62 64 62 57 57 61 61 63 66 70 74 76 76 77 79 81 84 87 88 88 90 95 96 95
10 11 12 13 15 16 17 18 20 21 23 25 26 28 29 31 32 33 34 36 37 38 39 39 39 40 42 44 46 48 50 51 53 54 53 52 50 49 47 46 45 45 45 45 45 46 47 48 49 50 51 52 52 53 54 54 55 56 57 59 61 64 65 68 74 76 71 68 71 71 69 69 72 76 79 80 81 82 83 85 88 90 91 91 95 99 98
11 12 14 15 16 17 18 20 21 23 25 26 28 29 31 32 33 34 35 37 37 37 38 38 40 42 44 46 48 50 52 53 53 52 51 49 48 46 45 45 45 45 45 46 47 48 49 50 51 52 52 53 54 55 56 57 58 59 60 61 63 64 66 70 78 84 83 81 83 84 82 80 79 80 81 82 83 84 86 89 91 93 94 93 96 100 101
13 14 15 16 17 19 20 21 23 25 26 27 29 30 31 32 34 35 36 37 37 37 38 41 43 45 47 48 50 51 52 52 51 50 48 47 45 45 45 45 45 46 47 48 49 50 51 52 53 54 55 56 57 58 60 61 62 63 63 65 65 66 67 69 75 84 85 83 85 87 86 85 85 84 84 84 85 85 87 89 92 94 97 97 98 100 102
14 15 16 18 19 20 22 23 25 26 27 28 29 30 32 33 35 35 35 35 36 38 41 43 45 47 48 50 51 51 50 49 48 47 46 45 44 44 45 45 46 47 48 49 50 52 53 55 57 58 58 60 62 63 64 66 67 67 68 68 68 69 70 68 71 80 84 82 84 88 87 86 87 87 88 88 87 87 88 90 93 96 99 100 100 100 101
16 17 18 19 21 22 23 24 25 26 27 28 30 31 33 34 34 34 34 36 38 40 42 44 46 48 50 50 50 49 47 46 46 45 44 44 44 44 45 46 47 48 49 50 51 52 53 55 58 60 61 62 65 66 67 69 70 71 72 72 73 73 74 72 70 76 81 81 83 88 88 87 89 89 90 90 89 90 91 92 94 96 98 100 101 101 100
17 18 19 21 22 23 24 25 26 27 28 30 31 32 32 32 32 34 35 38 40 42 44 46 48 49 49 48 47 46 45 44 44 43 43 43 44 45 46 47 48 49 50 52 53 54 55 57 59 62 63 65 67 68 70 72 74 76 77 78 78 78 78 76 73 74 79 81 83 87 88 87 89 90 91 91 89 89 90 91 93 96 98 98 99 100 99
18 19 21 22 22 23 24 25 26 27 29 30 30 30 30 31 33 35 37 39 41 44 46 47 48 48 47 46 44 43 43 42 42 42 43 44 46 47 48 49 50 51 53 54 56 58 60 62 64 66 67 68 70 71 73 75 78 80 82 83 84 83 82 82 77 76 79 81 82 84 86 86 87 89 89 89 88 87 88 90 94 97 99 99 99 101 100
19 20 21 22 22 23 24 25 27 28 29 28 28 29 31 32 34 36 38 41 43 45 47 47 46 45 44 43 42 41 41 41 41 42 44 46 47 48 49 51 52 54 56 58 61 63 66 67 69 70 71 72 74 76 78 79 81 84 85 87 88 87 86 86 82 79 81 82 83 84 86 86 86 88 89 89 88 88 88 92 95 98 100 102 102 101 99
19 20 21 22 23 23 25 26 27 26 26 26 28 30 32 34 36 38 40 43 45 45 45 44 44 43 42 41 40 40 40 40 42 43 45 47 48 49 51 53 55 57 59 62 64 67 69 71 72 73 75 77 79 81 83 84 86 87 89 90 90 89 89 89 88 85 84 86 86 86 85 86 87 89 91 92 93 93 92 93 97 98 98 98 98 95 92
19 20 21 22 23 24 25 25 24 24 25 27 29 31 33 35 37 39 41 43 44 44 43 42 41 41 40 39 38 39 39 41 43 45 46 48 50 51 53 55 57 59 61 64 67 70 72 73 74 76 78 80 82 84 86 87 89 91 92 93 92 92 92 91 91 90 89 89 91 91 89 90 91 92 95 96 96 96 93 92 96 99 98 97 96 94 91
20 21 21 23 24 24 23 22 22 23 26 28 30 32 34 36 38 40 42 43 42 41 41 40 40 40 39 38 38 39 40 42 44 46 48 49 51 53 55 57 59 61 64 66 69 71 72 74 76 78 80 82 84 85 87 89 91 92 94 95 95 95 95 95 94 94 92 91 93 96 97 98 97 97 99 99 98 98 97 95 97 102 103 102 101 96 91
20 21 22 23 22 20 20 20 22 25 27 29 31 33 35 37 39 41 42 41 40 39 39 40 40 40 39 38 38 39 42 44 46 48 49 51 53 55 57 59 61 64 66 68 70 72 73 74 76 78 79 81 84 86 88 90 92 94 95 98 99 99 99 99 98 98 97 95 95 98 98 98 98 99 101 102 102 104 104 102 102 103 104 103 99 93 87
21 21 21 20 18 18 19 22 24 26 27 29 32 34 37 39 40 41 41 39 38 38 39 40 41 40 39 39 39 40 43 45 47 49 50 52 54 57 59 61 64 66 68 70 72 73 74 75 77 78 79 81 83 86 88 90 93 96 97 100 101 102 102 102 101 101 101 99 99 100 99 98 99 101 103 104 105 107 106 104 102 101 100 98 93 87 82
20 19 17 16 17 18 21 23 25 26 29 31 34 36 38 40 41 41 40 38 37 38 39 41 41 41 40 39 40 41 43 46 48 49 51 54 56 59 61 63 65 68 70 72 73 74 76 78 80 81 82 84 86 88 90 91 93 96 98 100 102 102 102 102 102 102 102 102 104 106 105 102 102 104 105 106 107 108 106 103 100 96 93 91 88 84 81
17 16 15 16 18 20 22 24 25 27 30 32 35 37 39 41 41 41 39 37 37 39 41 42 42 41 40 40 40 41 44 46 48 50 52 55 58 61 63 65 67 70 72 74 75 77 78 80 82 84 85 87 89 90 92 93 94 96 97 99 101 101 101 102 102 102 103 103 105 106 106 104 104 105 107 107 107 107 106 102 99 96 93 92 92 88 84
13 13 15 16 19 21 23 25 27 29 31 34 37 38 40 42 41 39 38 38 39 41 43 43 42 41 41 40 40 42 44 46 49 51 54 57 60 62 65 67 69 72 74 75 77 78 80 81 84 86 88 90 92 93 94 95 97 99 99 100 101 101 101 102 102 103 105 104 104 105 106 104 103 104 106 108 107 106 105 104 105 105 102 99 98 94 89
12 14 15 17 19 22 24 26 29 31 33 35 37 39 41 41 40 38 38 38 41 43 44 44 43 42 41 40 40 41 44 47 49 53 56 59 61 64 67 69 71 73 75 76 78 79 81 83 86 87 89 91 93 95 96 98 99 101 102 102 102 101 101 103 104 104 105 104 104 105 106 104 104 104 105 108 112 112 112 112 113 113 111 105 101 97 92
13 14 16 18 20 23 25 28 31 33 34 36 38 41 42 41 39 37 37 39 41 43 44 44 44 42 40 39 40 42 45 48 51 55 58 60 63 66 68 70 72 74 76 78 79 81 83 85 87 89 90 92 94 96 98 99 100 102 103 104 104 104 104 105 106 105 105 106 108 110 110 110 109 109 108 112 119 122 121 119 116 115 113 108 101 96 93
13 14 16 18 21 24 27 30 32 34 36 37 39 41 41 40 38 36 37 39 41 42 42 43 42 41 39 39 41 44 47 50 53 56 59 62 65 67 69 71 73 75 78 80 82 84 86 87 89 91 92 93 95 96 97 99 100 102 104 105 106 106 106 107 107 107 109 112 113 115 117 115 113 114 114 116 121 123 121 118 115 113 112 109 101 95 91
14 15 17 19 22 25 28 31 33 35 37 40 41 42 40 38 37 37 38 40 41 41 40 40 40 40 40 41 43 46 49 52 55 58 61 64 66 69 71 73 76 78 81 83 85 86 88 89 90 91 91 92 94 95 96 98 99 101 103 104 105 106 107 108 108 107 109 112 114 116 118 115 112 112 112 112 115 118 118 115 112 109 108 107 102 94 89
16 17 19 21 23 26 29 31 33 36 39 41 42 42 40 38 37 38 39 41 41 40 39 39 39 40 41 43 46 49 51 54 57 60 63 65 68 71 74 77 80 82 83 85 86 86 87 88 88 89 90 91 93 94 95 96 98 99 101 104 106 107 108 108 108 106 104 105 107 109 112 112 109 108 108 109 111 114 114 111 106 102 101 101 100 94 87
18 20 21 23 25 27 29 31 34 37 39 42 42 41 39 38 38 39 40 41 40 40 39 39 40 41 43 45 48 50 53 55 58 62 65 68 71 74 77 79 80 82 82 83 83 84 85 86 87 88 89 91 92 94 95 96 98 99 101 103 105 106 106 106 106 105 103 102 102 103 108 111 110 109 108 107 106 108 107 104 100 96 94 94 95 94 88
20 22 23 25 27 28 29 31 35 38 40 42 41 39 37 37 38 39 40 40 39 39 39 40 41 43 45 47 49 52 55 58 62 65 68 71 73 75 77 78 79 80 81 81 82 83 84 85 86 88 89 91 93 94 96 97 98 100 101 102 103 104 105 104 104 105 105 104 102 100 101 104 106 104 103 101 101 102 102 100 97 94 92 89 90 92 91
22 24 25 27 27 28 30 34 37 39 41 40 38 36 35 36 37 38 37 37 37 37 38 40 42 44 46 49 51 55 58 61 64 67 69 71 73 75 77 79 80 81 82 82 83 84 85 86 87 88 90 91 93 95 96 98 99 101 102 103 104 104 105 104 103 103 102 102 101 97 93 94 99 101 100 101 102 104 104 102 98 95 92 88 86 86 88
23 25 27 27 28 30 33 36 38 40 39 37 34 34 35 35 35 34 34 34 36 37 39 41 43 45 48 51 55 58 61 63 65 67 69 72 74 77 79 80 82 83 84 85 85 86 86 87 88 90 91 92 94 96 97 99 100 102 103 105 105 106 106 105 104 103 102 103 105 105 102 102 106 109 109 108 109 111 111 109 104 100 97 93 88 84 83
24 26 27 28 30 32 35 37 39 38 35 33 32 33 33 32 31 31 32 34 36 38 41 43 46 49 52 55 57 59 61 63 66 68 71 73 76 79 81 83 85 87 88 89 89 89 88 89 90 91 92 93 95 97 98 100 102 103 104 106 107 108 110 110 109 108 106 107 110 114 114 114 115 117 118 116 116 117 117 116 112 108 104 99 93 87 82
25 26 28 30 32 34 37 38 36 33 31 30 30 30 29 29 30 31 33 35 38 40 43 46 49 52 54 56 58 61 63 66 69 71 74 77 79 82 85 87 88 90 91 92 92 92 91 91 92 93 94 95 96 98 99 101 102 103 105 106 108 110 112 113 113 111 108 108 111 115 118 119 119 121 122 121 120 119 118 116 112 109 105 101 96 90 84
26 27 30 32 34 36 36 33 30 28 28 28 27 27 27 28 30 32 34 37 40 42 45 48 51 54 57 59 61 64 67 69 72 75 78 81 83 86 88 90 92 93 94 96 96 95 94 94 94 94 95 96 97 98 100 101 103 105 106 107 108 109 111 113 114 114 111 109 110 114 118 120 120 120 120 120 118 116 114 111 109 106 104 102 99 93 87
28 29 31 33 34 33 30 26 25 25 25 24 24 26 27 29 31 33 36 38 41 44 48 52 55 57 60 62 65 68 70 73 76 79 82 84 86 89 91 93 95 96 98 99 99 98 98 96 96 96 96 96 97 99 100 102 103 105 106 107 108 109 111 112 114 115 115 113 112 112 114 117 118 118 117 116 115 114 113 110 108 106 104 103 101 98 92
29 31 32 31 29 25 23 22 22 22 22 23 24 26 28 30 32 35 37 40 44 48 52 55 57 60 63 66 69 73 76 78 81 84 85 87 89 91 93 95 97 98 100 101 101 101 100 99 97 97 97 97 98 100 101 103 104 105 106 106 107 109 111 113 115 116 117 117 116 114 114 116 118 118 118 117 116 116 114 111 107 105 103 102 100 98 95
30 29 28 24 21 20 19 19 20 20 22 24 26 28 30 32 34 37 40 44 48 52 55 58 61 65 68 71 74 77 81 83 86 88 90 91 92 94 95 97 98 101 102 103 103 102 102 100 99 98 98 98 100 102 103 104 105 106 106 106 107 108 110 113 115 117 117 117 117 116 115 115 117 118 119 119 117 115 113 110 105 101 99 97 96 94 91
26 23 19 17 16 16 17 18 19 21 23 25 27 28 30 33 36 41 45 49 51 54 58 62 65 68 71 74 77 79 82 85 88 91 93 94 95 96 97 98 100 103 104 105 104 104 103 102 101 100 100 101 102 103 104 105 106 107 107 107 108 108 109 110 112 114 115 114 113 113 113 113 114 115 116 116 114 111 108 105 100 96 94 93 92 90 88
17 14 13 13 14 14 16 18 20 22 24 25 27 29 33 37 41 45 48 51 54 58 61 64 67 70 73 75 77 80 82 85 88 90 93 96 98 99 100 101 103 105 106 106 106 106 105 104 103 102 102 103 104 105 106 107 107 108 109 110 110 111 112 111 111 112 114 114 113 112 111 111 111 111 111 110 109 107 103 99 96 93 91 89 88 88 86
10 9 10 11 12 14 16 19 20 22 24 26 28 33 38 42 45 48 51 54 57 60 63 65 67 70 73 75 77 79 82 84 86 89 92 95 98 101 103 104 105 107 108 108 108 107 106 106 105 105 104 104 105 106 108 109 110 111 112 113 114 115 116 116 115 115 115 115 115 113 111 108 107 107 107 107 107 105 102 98 95 92 89 87 85 84 83
6 8 9 11 13 15 17 19 20 23 26 30 34 37 41 44 47 50 54 56 59 61 63 66 68 71 73 75 77 79 81 83 86 88 90 93 97 100 104 106 108 109 109 109 109 108 108 107 107 106 106 106 107 108 110 111 113 114 115 116 117 118 119 119 120 119 118 117 115 113 111 107 105 106 107 108 107 106 104 100 97 95 92 88 86 84 82
6 8 10 12 13 15 17 20 23 27 31 35 38 40 44 47 51 53 56 57 60 63 65 67 70 72 74 75 77 79 81 83 85 88 90 92 95 99 103 106 109 110 110 110 110 109 109 109 108 108 108 108 109 111 112 114 115 117 118 119 120 121 122 123 123 124 125 124 123 121 118 115 113 112 112 112 111 110 108 104 101 97 95 91 88 85 83
8 10 11 12 14 16 19 24 28 32 36 39 41 44 47 50 53 55 57 59 61 64 66 69 71 72 74 76 78 80 82 84 86 88 90 92 95 98 102 106 109 110 110 110 110 110 110 110 110 110 110 110 111 112 113 114 116 117 119 120 121 122 124 125 127 128 130 131 131 131 130 127 124 122 121 119 116 113 110 106 103 99 95 92 90 87 84
10 11 12 14 17 21 25 30 34 37 40 42 45 47 50 52 54 56 59 61 63 65 67 69 71 72 74 76 78 81 82 84 86 88 90 92 95 98 101 105 109 111 110 109 110 111 112 112 112 112 112 112 113 113 114 114 115 117 119 121 122 123 125 127 128 129 130 131 132 132 132 131 129 126 125 123 120 115 110 106 103 99 95 92 90 88 84
12 14 16 19 24 28 32 35 38 40 42 44 47 49 52 54 56 58 60 62 64 66 68 69 71 73 74 76 79 81 82 84 87 89 91 93 96 99 101 105 108 110 110 109 110 111 113 114 114 114 114 114 114 115 115 116 117 118 119 121 122 123 124 126 127 128 129 130 130 130 130 130 128 126 124 123 120 116 111 106 102 99 95 91 89 87 84
16 20 23 27 30 33 36 38 40 42 44 46 49 51 54 56 58 60 62 63 65 67 68 70 71 73 75 77 79 81 82 85 87 90 92 94 97 99 102 105 108 110 109 109 109 111 113 115 115 115 115 115 116 117 117 118 119 119 121 122 123 124 125 126 127 128 129 129 130 130 130 129 129 127 125 122 119 116 112 107 102 98 95 91 89 86 83
23 27 30 32 34 36 38 40 42 44 46 48 50 53 55 57 59 61 63 65 66 67 69 71 73 75 77 78 80 81 83 85 87 90 92 94 97 99 101 105 108 110 110 109 109 110 112 114 115 115 115 116 117 118 119 119 120 120 122 123 124 124 126 126 127 127 128 129 129 129 129 129 128 127 125 122 119 114 110 106 102 100 96 92 89 86 82
28 30 32 34 36 38 40 42 44 46 48 50 52 54 56 58 60 62 64 66 67 68 70 72 75 76 78 79 81 82 84 85 87 90 92 94 96 99 101 105 108 110 111 110 110 110 111 112 114 115 116 117 118 119 119 120 120 121 122 123 124 125 126 126 127 127 127 127 127 127 127 127 126 125 123 121 118 113 108 104 101 99 97 93 90 86 82
29 31 33 35 37 40 42 44 46 48 50 52 53 55 57 58 60 62 65 67 68 69 72 74 76 78 79 80 81 83 84 85 87 90 92 94 96 99 102 106 109 111 111 111 111 110 110 111 113 115 116 118 120 120 121 121 121 122 122 123 124 125 126 126 127 127 127 127 127 127 126 126 125 123 121 119 116 112 107 103 101 98 95 92 88 85 82
30 32 34 36 38 40 42 44 46 48 50 51 53 55 56 58 60 64 66 68 69 71 73 75 77 78 80 81 82 83 85 86 88 91 93 95 98 100 103 107 109 111 112 112 112 111 110 112 113 115 117 119 121 122 123 124 124 124 125 125 126 126 127 128 128 128 128 128 127 127 126 126 125 123 120 118 115 111 107 104 101 98 95 91 87 83 81
31 33 35 36 38 40 42 44 45 47 48 50 52 54 55 58 62 65 67 69 71 73 74 76 77 79 80 82 84 85 87 89 90 92 95 97 100 102 105 107 110 112 113 114 114 113 112 113 115 116 117 119 121 124 125 126 126 127 127 127 127 128 128 129 129 129 129 128 128 127 127 126 126 123 120 116 113 110 106 103 100 98 95 91 87 83 81
31 33 34 36 38 39 41 42 44 45 47 49 52 54 56 59 63 66 68 71 73 75 76 78 79 80 82 84 86 88 90 91 93 94 97 99 101 104 106 108 111 113 115 116 116 116 115 116 117 117 118 120 123 125 127 128 129 129 129 129 129 130 130 130 130 129 129 129 129 128 127 127 126 124 120 115 111 108 105 102 99 97 95 92 88 84 81
31 33 34 36 37 39 40 42 44 46 48 51 54 56 58 61 64 66 68 72 74 76 78 80 82 83 85 86 88 90 92 93 94 96 98 100 103 105 106 109 111 114 116 117 118 118 118 118 118 119 120 122 124 126 129 130 131 131 131 131 131 132 132 132 132 131 131 130 130 129 128 128 127 124 120 114 109 106 104 102 100 98 96 94 89 83 79
32 33 35 36 38 40 42 44 46 48 51 54 56 58 60 63 65 67 69 72 75 77 80 82 84 86 88 89 90 92 94 95 96 98 99 101 104 106 108 110 112 115 117 119 119 120 120 120 120 121 122 123 125 128 130 132 133 133 133 133 133 133 134 134 133 133 132 132 131 130 129 128 128 125 120 115 110 107 105 103 100 98 95 93 88 82 76
34 35 37 39 41 43 45 47 49 51 54 56 58 60 62 64 66 67 70 72 75 77 80 83 86 88 90 91 92 94 95 97 98 99 101 103 105 107 109 111 113 116 118 120 121 122 122 122 123 123 123 125 127 129 131 133 134 135 135 135 134 134 135 135 135 134 134 133 132 130 128 128 127 126 122 117 112 107 103 100 97 94 91 89 86 81 75
36 38 40 42 44 46 48 50 52 54 56 59 60 62 63 65 67 69 71 73 75 77 81 84 87 89 91 93 94 96 97 98 99 100 102 105 107 109 111 113 115 117 119 121 123 124 124 125 125 125 126 127 128 130 132 134 136 137 137 136 136 135 135 136 136 136 135 134 133 130 128 127 127 126 123 117 112 106 100 96 93 91 88 86 84 81 77
Wind_Direction
244 258 271 281 288 294 298 300 303 306 308 310 312 314 316 317 317 317 318 319 320 321 321 321 321 321 321 321 322 324 325 326 326 325 325 324 324 324 324 324 325 326 326 327 327 328 327 326 324 322 320 319 317 316 316 317 317 318 319 320 320 320 321 322 323 325 330 333 333 333 333 331 329 325 321 318 317 315 314 313 312 312 312 311 310 310 311
262 274 282 289 293 296 299 302 305 308 311 313 316 317 318 318 317 318 319 320 321 321 321 321 321 322 323 325 327 327 327 326 325 325 324 324 324 325 326 326 327 328 328 328 327 326 325 323 322 321 320 319 318 318 319 320 321 322 324 325 326 327 327 327 326 324 324 325 324 323 325 326 326 325 322 321 321 319 318 317 316 315 315 314 313 312 313
273 281 287 291 294 297 301 304 308 311 314 316 317 317 317 317 317 318 319 321 321 322 322 322 323 325 327 328 328 327 325 325 324 324 325 325 326 327 328 329 329 328 328 327 326 324 323 322 321 321 321 321 322 322 323 325 326 327 329 330 332 333 333 334 335 332 331 331 329 327 327 329 330 331 331 330 328 325 322 320 318 317 316 316 315 314 315
279 284 288 291 295 299 304 308 312 314 316 317 317 317 317 317 318 319 320 321 322 323 324 326 328 329 328 327 326 325 325 324 325 325 326 328 329 330 330 330 329 328 327 326 325 324 323 323 323 323 324 325 326 327 329 330 331 331 333 334 335 337 338 339 340 339 338 340 339 337 336 336 336 335 334 333 330 328 326 323 321 319 317 317 317 316 317
280 285 289 293 299 304 308 312 314 316 316 316 317 317 317 317 319 320 322 324 325 327 329 329 329 328 327 326 325 325 325 325 326 327 329 330 331 331 331 331 330 328 327 326 326 326 325 326 327 328 330 331 331 333 334 335 335 335 337 338 338 339 341 342 343 340 339 341 340 338 338 338 337 337 335 334 333 330 328 325 322 320 318 318 318 317 317
282 287 292 298 304 309 312 313 314 314 315 316 316 316 317 318 320 322 325 328 329 330 330 329 328 326 325 325 326 326 326 327 328 330 331 333 333 333 332 331 330 328 327 327 327 328 330 331 332 334 335 336 337 337 338 338 339 339 340 340 341 342 342 343 344 341 339 340 340 339 339 338 338 337 336 335 334 331 329 326 324 322 320 319 318 317 317
285 291 297 304 308 311 312 312 313 314 315 315 316 317 319 321 324 327 330 331 330 329 328 327 326 326 326 326 327 327 328 329 331 332 334 334 334 333 332 331 330 328 328 328 328 330 332 334 335 337 338 339 339 340 341 341 341 341 342 342 343 343 343 343 344 342 340 340 341 339 339 339 338 338 337 336 334 333 332 330 326 321 319 318 317 318 320
291 297 304 308 309 310 310 311 313 314 315 317 319 321 323 326 330 332 331 330 329 328 327 326 326 326 327 327 328 329 330 331 333 334 335 335 335 334 333 331 330 330 329 330 331 332 334 336 338 339 340 341 341 342 343 343 343 343 344 344 344 344 343 342 343 343 342 342 342 340 340 340 339 338 337 335 334 333 331 328 323 318 317 318 319 321 324
297 303 306 307 307 307 309 311 314 316 318 320 322 324 327 330 332 331 329 328 327 327 327 327 327 327 328 328 330 331 332 333 335 335 336 336 335 334 334 333 332 332 332 333 335 337 339 340 341 342 342 343 343 343 344 345 345 345 345 345 344 344 344 343 343 344 343 343 343 341 340 339 338 337 335 332 331 330 328 327 323 319 319 321 324 326 327
301 303 303 303 304 307 310 314 317 319 321 323 325 328 330 331 330 329 328 328 328 328 328 328 328 329 330 330 331 333 334 335 336 337 337 337 336 336 335 335 335 335 336 337 339 341 342 343 343 344 344 344 344 345 345 345 346 346 346 345 344 344 344 343 343 345 345 344 343 341 340 339 339 336 333 330 328 327 328 328 325 323 324 326 327 328 328
299 298 299 301 305 310 314 317 319 321 324 327 329 330 330 329 329 329 328 328 328 328 328 329 330 331 331 332 333 334 335 336 337 338 338 337 337 337 337 337 337 338 339 341 343 343 343 343 344 345 345 345 345 345 346 346 346 346 346 345 344 344 344 344 343 345 346 345 343 342 340 340 339 337 334 332 330 329 330 332 329 325 326 327 327 328 328
294 296 299 304 310 314 317 320 322 325 328 329 329 328 328 328 328 328 329 329 329 329 329 331 332 333 333 333 334 334 335 337 338 338 338 338 338 338 338 338 339 340 341 343 343 343 344 344 345 345 345 345 345 345 346 346 346 346 345 345 345 345 345 344 344 345 347 346 344 342 342 341 341 339 337 335 334 332 331 334 332 328 327 328 329 331 333
294 298 303 309 313 317 320 323 326 328 329 329 328 327 327 328 328 329 329 329 329 330 331 333 334 334 333 333 334 335 336 337 338 338 339 339 339 339 339 339 340 341 342 343 343 343 344 344 345 345 345 345 345 345 345 345 345 345 345 344 345 345 345 345 345 346 347 347 346 344 344 344 343 341 339 337 336 332 331 334 334 331 331 332 334 335 336
297 302 308 313 317 321 324 326 327 328 329 328 326 326 326 327 328 329 330 330 330 331 333 335 335 334 333 333 334 336 337 338 338 339 339 339 339 339 339 340 341 342 342 343 343 343 343 344 344 345 345 345 344 344 344 344 344 344 344 344 344 345 346 346 346 346 347 348 348 345 344 344 343 342 341 339 338 336 334 335 336 334 334 334 334 335 335
301 306 311 316 321 325 325 326 327 327 327 326 325 325 326 328 329 330 330 331 332 334 335 336 336 335 334 333 334 336 337 338 338 339 338 339 339 339 340 341 341 342 342 342 342 342 342 343 344 344 344 344 343 343 344 343 343 343 344 344 344 345 346 346 347 347 347 348 348 345 344 345 345 343 341 341 341 339 337 336 336 335 333 333 333 334 335
304 308 315 321 324 324 324 324 325 326 326 325 326 327 327 328 330 331 332 333 334 336 337 337 337 336 334 333 333 334 336 338 338 338 338 338 338 339 340 341 341 341 341 341 341 342 343 343 343 343 343 343 343 343 343 343 343 343 343 344 344 346 346 346 347 347 347 348 348 346 345 346 346 345 343 343 343 340 337 336 335 333 332 333 334 336 338
306 312 321 325 324 322 321 323 324 326 326 326 326 327 328 330 332 333 334 335 336 337 339 339 338 337 335 333 333 334 336 337 337 338 338 338 339 340 340 341 341 341 340 341 341 342 343 343 343 342 342 342 342 342 342 342 342 343 343 344 345 346 346 346 347 348 348 348 348 347 345 345 347 347 344 343 342 340 336 333 332 332 335 338 339 340 341
309 318 324 323 321 320 320 322 324 326 326 326 327 329 331 332 334 335 336 337 338 339 340 340 340 338 336 334 334 335 336 337 338 338 338 338 339 340 341 341 341 341 340 341 342 342 342 342 342 342 341 341 340 341 341 342 342 342 343 344 345 346 346 347 347 348 347 347 347 347 346 345 347 347 345 342 341 339 336 335 336 337 340 342 342 342 342
315 321 322 321 320 319 320 322 324 325 326 327 329 330 332 334 335 337 338 339 339 340 340 340 341 340 338 337 336 336 337 338 338 338 338 339 340 340 341 341 341 341 341 341 342 341 341 341 341 340 340 340 339 340 340 341 342 342 343 344 345 346 347 347 348 347 346 346 347 347 346 346 347 347 346 343 342 341 340 341 341 341 341 342 343 343 342
316 318 319 320 319 318 320 322 323 325 327 328 330 332 334 335 337 339 339 339 339 340 340 340 341 341 340 339 338 338 339 339 339 339 339 340 340 340 341 341 341 341 341 341 341 340 340 340 339 339 339 339 339 340 340 341 342 342 343 344 345 346 347 347 347 347 347 347 347 347 347 347 347 347 347 347 346 345 344 344 343 342 341 341 343 343 342
312 314 316 317 316 317 320 322 324 326 327 329 332 334 335 336 338 340 339 339 340 342 341 340 341 342 341 341 340 340 340 340 340 340 340 340 340 341 341 341 340 340 340 340 340 340 340 339 338 339 339 339 339 340 341 341 342 343 343 344 345 346 346 347 347 347 347 348 348 347 346 347 348 349 349 350 349 347 345 344 343 342 341 340 341 343 343
306 309 311 313 315 317 320 322 325 327 328 331 334 335 335 337 340 340 340 340 342 344 343 342 343 344 344 343 342 342 342 342 341 341 340 341 341 342 341 341 340 340 341 341 340 340 339 338 338 339 339 340 340 340 341 342 343 343 343 344 344 345 346 346 346 347 348 348 348 347 345 346 349 349 349 350 349 346 344 344 343 342 341 339 340 342 343
299 303 307 311 314 316 320 323 326 327 330 333 334 335 336 339 340 340 340 342 345 346 346 346 346 346 346 345 344 343 343 342 341 341 342 343 343 342 341 341 341 342 342 342 341 340 339 339 340 340 341 341 341 341 342 343 343 344 344 344 344 345 345 345 345 347 348 348 347 346 345 346 348 349 349 349 349 347 345 343 343 342 341 340 339 340 342
298 303 307 310 314 317 321 324 326 328 331 334 334 335 337 339 340 340 342 344 346 347 348 348 349 348 347 346 345 344 343 343 343 344 344 343 343 343 343 343 344 344 344 343 343 342 341 341 342 342 342 343 342 343 343 344 344 344 344 344 344 344 344 345 345 346 347 348 348 348 347 347 348 349 349 349 348 347 344 342 342 342 343 342 340 340 341
300 304 307 311 316 320 322 324 326 329 333 334 334 336 338 338 340 342 344 345 347 349 350 350 349 348 346 346 345 344 345 345 345 345 344 344 345 346 346 347 347 347 347 346 346 345 345 344 344 344 344 344 344 344 344 344 344 344 344 343 343 343 343 345 346 346 346 346 347 349 349 348 348 348 347 347 346 345 344 343 343 343 344 345 344 342 342
302 305 309 314 318 321 322 324 327 331 333 334 335 336 337 339 341 343 345 347 349 350 350 349 348 347 346 347 347 347 347 347 346 346 347 349 350 350 350 351 351 351 350 350 349 349 348 347 347 346 346 346 346 345 345 345 345 344 344 343 343 343 343 344 346 346 346 346 346 348 349 349 348 348 347 347 347 346 345 345 345 345 345 346 347 346 344
303 307 312 316 319 321 323 325 329 332 333 335 335 337 339 340 342 344 347 349 351 351 349 348 347 348 348 349 350 350 349 349 350 351 353 353 354 354 354 354 354 353 353 353 352 352 351 349 348 348 347 348 347 347 347 346 345 345 344 344 344 343 343 344 345 347 347 347 347 348 350 351 351 349 349 349 349 349 348 347 346 346 347 347 348 349 348
305 309 313 316 319 322 324 327 330 332 333 335 337 338 340 342 345 348 351 351 350 349 349 349 349 350 352 352 353 353 353 354 355 355 355 355 356 357 356 356 356 356 356 355 355 354 352 351 350 349 349 349 349 349 348 348 347 346 345 345 344 344 343 344 345 347 348 349 349 349 350 351 352 350 349 350 351 350 349 348 348 348 347 347 347 349 349
305 309 313 316 320 323 327 329 331 333 335 337 338 340 343 347 351 352 351 350 350 350 351 352 353 355 356 357 357 357 357 356 356 356 356 357 357 357 357 357 357 357 357 357 357 355 354 353 352 351 351 351 351 351 350 349 348 347 347 346 345 344 344 343 344 346 349 350 351 350 350 351 352 351 350 350 351 351 350 349 348 347 347 346 346 348 348
306 310 314 318 322 326 328 330 333 335 337 339 342 346 351 353 353 351 350 351 353 354 356 358 359 360 0 360 359 359 358 357 357 357 357 358 358 358 358 358 358 358 358 358 358 357 355 354 354 353 353 353 352 352 351 350 349 348 347 347 346 345 344 344 344 346 349 351 352 351 350 350 351 351 350 349 350 350 349 348 348 347 347 346 345 347 348
308 312 316 320 324 327 330 333 335 337 341 345 349 353 354 353 351 352 354 357 358 360 2 3 4 4 3 2 1 0 359 359 359 359 358 358 358 358 358 358 358 358 358 358 358 357 356 356 355 354 354 353 353 352 351 350 349 348 348 347 346 346 345 345 345 347 349 350 352 352 351 351 350 350 349 349 349 349 349 349 349 348 347 347 345 346 347
310 314 319 324 327 331 333 336 339 344 349 352 353 353 353 353 356 359 2 3 4 5 6 6 6 6 5 4 3 2 1 0 0 359 359 359 358 358 357 357 357 358 358 358 358 357 357 356 356 355 354 353 353 352 352 350 349 349 348 347 347 346 346 346 347 348 349 350 351 352 352 351 351 350 349 349 350 349 349 349 349 348 348 347 346 345 346
313 319 324 328 331 334 337 342 348 352 354 354 354 355 357 360 3 6 7 7 8 8 7 7 7 6 5 4 3 2 1 1 1 0 360 359 358 358 357 357 357 357 358 358 357 357 357 357 356 355 354 353 353 352 352 351 350 349 349 348 348 348 348 348 348 349 349 350 351 352 352 352 351 350 349 349 349 349 349 349 349 348 348 347 346 345 346
319 325 329 333 336 341 346 352 355 355 356 358 1 2 4 6 9 10 10 10 9 8 7 6 5 4 3 2 2 1 0 0 0 360 360 359 359 358 357 357 357 357 357 357 357 357 357 357 356 356 354 353 353 352 352 351 351 350 350 349 349 349 350 350 350 350 350 351 351 352 352 351 351 350 349 348 349 349 348 347 347 348 348 348 347 346 346
325 330 335 340 346 353 357 358 359 1 3 6 6 7 10 11 11 11 10 9 7 6 5 4 3 1 0 360 359 358 358 358 358 358 358 358 358 358 358 357 356 356 356 357 357 357 357 357 356 356 355 353 352 352 352 352 352 351 351 351 351 351 351 352 352 351 351 351 352 352 352 351 351 350 349 348 348 347 347 346 347 348 348 349 349 347 346
331 339 348 354 359 1 2 4 7 9 10 10 10 12 13 12 11 9 7 6 5 3 2 1 0 359 359 358 357 356 356 356 355 355 355 356 357 358 357 356 355 355 356 356 357 357 357 356 356 355 354 353 352 352 352 352 352 352 352 352 352 351 352 352 352 353 352 352 352 352 352 351 350 350 349 348 348 347 347 346 347 348 349 350 350 348 347
349 359 4 6 7 10 12 14 15 14 14 14 15 14 12 10 8 6 5 3 2 0 360 359 358 357 357 356 355 355 354 354 353 353 353 353 355 356 356 355 355 354 355 356 356 356 357 356 356 355 354 353 353 353 353 353 352 352 352 352 352 352 352 352 352 352 353 352 352 351 351 351 351 350 350 349 349 348 348 347 348 349 350 350 350 350 348
16 17 17 16 18 21 22 20 18 17 17 16 14 12 9 7 5 3 2 0 359 358 358 357 357 356 355 355 354 353 353 352 352 351 351 352 353 353 354 354 354 354 354 355 355 356 356 356 356 355 354 354 353 353 353 353 352 352 352 352 352 352 351 352 352 352 352 352 352 352 352 352 352 351 351 351 350 350 349 348 348 349 349 350 350 350 349
31 28 28 29 28 25 22 20 19 17 15 13 11 8 6 5 3 1 359 358 357 357 356 356 355 354 354 353 353 352 352 351 351 350 350 351 352 352 352 352 353 353 354 354 355 356 356 356 356 355 355 354 353 353 353 352 352 352 352 352 352 352 352 352 352 353 353 353 352 352 352 352 352 351 351 351 351 350 350 349 348 348 349 349 350 350 350
39 36 35 32 26 22 19 18 17 14 11 8 7 5 4 2 1 359 358 357 356 355 355 354 353 353 352 352 352 351 351 350 350 350 350 350 351 351 351 351 352 352 353 353 354 355 356 356 356 356 355 354 354 353 353 352 352 352 352 352 352 352 352 352 353 353 353 353 353 352 352 352 352 351 350 350 350 350 350 349 348 348 349 350 350 350 350
43 37 31 26 21 19 17 15 13 11 8 5 4 3 2 0 359 357 356 356 355 354 353 353 352 352 351 351 351 350 350 350 350 350 350 350 350 350 350 351 351 352 353 353 354 355 355 355 356 356 355 354 354 353 353 353 352 352 352 352 352 352 352 353 353 353 353 353 353 353 352 352 352 351 350 349 349 349 349 349 348 348 348 349 350 350 350
35 29 24 20 18 16 14 11 9 7 5 3 2 1 0 359 357 356 355 354 353 352 352 352 351 351 351 351 350 349 350 350 350 350 350 350 350 350 350 351 351 352 353 353 353 354 355 355 355 355 355 354 354 353 353 353 353 352 352 352 352 352 352 353 353 353 353 353 353 353 353 352 352 351 350 349 349 349 348 348 348 348 348 349 350 350 350
27 23 20 16 13 11 9 6 4 3 2 1 360 359 358 357 356 355 353 352 352 351 351 351 351 350 350 350 349 349 349 350 351 351 350 350 351 350 350 351 351 352 353 353 353 353 354 354 355 355 355 354 354 353 353 353 353 353 352 352 352 352 352 352 352 353 353 353 353 353 353 353 352 351 350 348 348 348 348 348 348 348 348 349 349 349 350
21 17 14 10 7 5 4 2 0 360 359 358 357 356 355 354 354 353 352 352 351 351 351 351 350 350 350 349 349 349 350 351 352 351 351 351 351 351 351 351 352 353 353 353 353 353 353 353 354 354 354 354 354 353 353 353 353 353 352 352 352 352 352 352 352 352 352 353 353 353 353 353 353 352 350 349 347 347 347 347 348 348 347 348 349 349 349
14 10 8 5 2 360 359 358 357 356 355 354 353 353 353 353 353 352 351 351 351 350 350 350 350 350 350 350 349 349 350 351 352 352 351 351 351 351 351 351 352 353 353 353 353 352 352 352 353 353 354 354 354 354 353 353 353 352 352 352 352 352 352 352 352 352 352 353 353 353 353 353 353 352 351 349 347 347 347 347 347 347 347 347 348 349 349
9 6 3 1 358 356 355 354 353 352 350 350 350 351 351 351 352 351 351 350 350 350 350 350 349 350 350 349 349 349 351 352 352 352 351 351 350 350 351 351 351 352 353 353 353 352 352 352 352 353 353 354 354 354 353 353 353 352 352 352 352 352 352 352 352 352 352 353 353 353 353 353 353 353 352 350 348 347 347 347 346 346 346 347 348 349 350
5 2 359 357 354 353 351 350 349 348 347 347 348 349 350 350 351 351 351 351 351 350 350 349 349 349 349 349 349 349 350 351 352 351 350 350 350 350 350 350 350 351 352 352 352 353 352 352 351 352 353 353 353 353 353 353 353 352 352 352 352 352 352 352 352 352 352 353 353 353 353 353 353 353 352 351 349 347 347 346 346 346 345 346 348 350 350
1 358 355 353 351 349 348 347 346 346 346 347 348 348 349 350 350 350 351 352 352 352 351 349 349 349 348 348 348 349 350 350 351 350 350 349 349 349 349 349 349 350 351 352 352 353 352 352 351 352 352 352 353 353 353 353 353 353 352 352 352 351 351 351 351 352 352 353 353 353 353 353 353 353 352 352 350 348 346 346 346 346 345 346 348 349 350
357 354 352 350 348 346 345 345 344 344 344 345 346 346 347 348 348 348 349 351 352 352 350 350 350 350 349 348 348 349 349 350 350 350 349 349 348 348 348 348 349 349 350 351 352 352 352 352 351 352 352 352 353 353 353 353 353 352 352 352 351 351 351 351 351 352 352 353 353 353 353 353 353 353 352 351 351 349 348 347 346 346 346 346 346 348 349
351 349 347 345 343 342 342 342 341 341 342 343 344 344 344 344 345 345 347 349 350 350 349 349 350 351 350 349 349 349 350 350 350 349 349 348 348 348 348 348 348 349 350 351 351 352 352 351 351 352 352 352 352 353 353 353 352 352 352 352 351 351 351 351 351 351 352 353 353 353 353 353 353 352 351 351 351 351 349 348 347 346 346 345 344 345 347
345 344 342 341 341 341 341 340 340 340 341 341 341 341 342 342 342 344 345 346 347 347 346 347 349 350 350 350 349 350 350 350 350 349 349 349 348 348 348 348 348 349 350 350 351 351 351 351 351 352 352 352 352 353 353 352 352 352 352 352 351 351 350 350 350 351 352 352 352 352 353 353 352 352 351 351 351 351 350 349 347 346 345 343 342 342 344
342 341 341 341 341 341 340 340 340 340 340 340 340 340 341 341 342 344 345 345 344 344 343 344 346 348 348 349 349 350 350 350 350 349 349 349 349 349 348 348 348 349 350 350 350 351 351 351 351 352 352 352 352 352 352 352 352 352 352 351 351 350 350 350 350 350 351 351 352 352 352 352 352 352 351 351 350 350 349 349 347 346 344 344 342 342 343
Height
10714 10714 10714 10714 10714 10713 10712 10712 10711 10710 10709 10708 10706 10704 10703 10701 10699 10697 10695 10693 10691 10689 10687 10684 10681 10679 10676 10673 10670 10667 10664 10661 10658 10655 10651 10648 10644 10640 10636 10632 10628 10624 10620 10616 10613 10609 10606 10602 10597 10594 10590 10585 10580 10574 10568 10562 10555 10549 10542 10534 10526 10520 10514 10507 10499 10493 10487 10476 10463 10454 10445 10435 10423 10411 10403 10395 10384 10373 10363 10350 10340 10337 10333 10319 10303 10296 10293
10714 10714 10714 10713 10713 10712 10712 10711 10710 10709 10708 10706 10705 10703 10701 10699 10697 10695 10693 10691 10689 10687 10684 10681 10678 10676 10673 10670 10667 10664 10661 10658 10654 10651 10648 10644 10640 10636 10632 10628 10624 10620 10617 10613 10610 10606 10602 10598 10594 10589 10585 10580 10575 10569 10563 10556 10549 10542 10535 10526 10517 10509 10501 10493 10484 10481 10484 10479 10467 10459 10452 10439 10425 10410 10399 10391 10380 10368 10357 10345 10332 10324 10319 10308 10290 10283 10283
10714 10714 10713 10713 10712 10711 10711 10710 10709 10708 10706 10705 10703 10701 10699 10697 10695 10693 10691 10689 10687 10685 10682 10679 10676 10673 10670 10667 10664 10661 10658 10655 10651 10647 10644 10640 10636 10632 10628 10625 10621 10618 10614 10610 10607 10603 10598 10594 10590 10585 10580 10575 10569 10563 10556 10550 10543 10536 10529 10521 10511 10502 10492 10481 10467 10456 10456 10454 10443 10436 10433 10428 10418 10403 10389 10378 10368 10357 10346 10334 10322 10311 10306 10301 10284 10270 10270
10713 10713 10712 10712 10711 10711 10710 10709 10708 10706 10705 10703 10701 10699 10697 10695 10693 10691 10690 10687 10685 10682 10679 10676 10673 10670 10668 10665 10661 10658 10654 10651 10647 10643 10640 10636 10632 10629 10625 10622 10618 10614 10611 10607 10603 10599 10594 10589 10585 10580 10575 10569 10563 10556 10549 10543 10536 10529 10523 10515 10507 10499 10489 10478 10463 10446 10439 10435 10425 10415 10409 10405 10401 10393 10383 10372 10359 10347 10334 10320 10309 10297 10289 10288 10279 10262 10255
10712 10712 10711 10711 10710 10710 10709 10708 10706 10705 10703 10701 10700 10697 10695 10693 10691 10690 10688 10685 10682 10679 10676 10673 10671 10668 10665 10662 10658 10654 10651 10647 10643 10639 10636 10633 10630 10626 10622 10619 10615 10611 10606 10602 10597 10593 10589 10584 10579 10574 10568 10562 10555 10549 10542 10535 10529 10522 10516 10509 10502 10495 10487 10480 10466 10448 10437 10432 10422 10410 10401 10394 10387 10380 10372 10364 10352 10341 10329 10314 10301 10288 10276 10272 10269 10258 10246
10711 10711 10710 10710 10709 10708 10707 10706 10704 10703 10701 10700 10698 10696 10694 10692 10690 10688 10686 10683 10680 10677 10674 10671 10669 10665 10662 10658 10655 10651 10647 10643 10640 10636 10633 10630 10627 10624 10620 10616 10612 10608 10603 10599 10594 10589 10584 10578 10572 10567 10562 10555 10548 10542 10535 10528 10521 10515 10509 10502 10495 10489 10483 10478 10470 10452 10437 10430 10418 10405 10397 10388 10379 10370 10361 10354 10344 10333 10322 10308 10293 10279 10266 10257 10253 10249 10239
10710 10710 10709 10709 10708 10707 10706 10704 10703 10702 10700 10698 10696 10694 10692 10690 10688 10686 10684 10681 10678 10675 10673 10670 10666 10663 10659 10655 10651 10647 10644 10640 10637 10634 10631 10628 10625 10622 10618 10614 10610 10605 10601 10596 10592 10588 10583 10577 10570 10564 10558 10551 10543 10536 10529 10522 10515 10508 10502 10495 10489 10483 10476 10472 10469 10455 10438 10428 10416 10402 10392 10382 10371 10362 10353 10344 10336 10323 10310 10298 10285 10272 10263 10253 10243 10238 10230
10709 10709 10708 10708 10706 10705 10704 10703 10702 10700 10699 10696 10694 10692 10690 10688 10686 10684 10682 10679 10676 10674 10671 10667 10663 10659 10656 10652 10648 10645 10641 10638 10635 10632 10629 10626 10623 10619 10615 10611 10607 10602 10598 10593 10588 10584 10579 10574 10567 10560 10553 10546 10538 10531 10524 10516 10508 10500 10494 10487 10481 10476 10470 10463 10461 10453 10437 10426 10414 10398 10387 10377 10366 10356 10346 10337 10330 10321 10308 10295 10282 10268 10258 10251 10239 10226 10218
10708 10708 10707 10706 10705 10704 10703 10702 10700 10699 10697 10695 10693 10691 10689 10687 10685 10683 10680 10677 10674 10671 10668 10664 10660 10656 10653 10649 10646 10642 10639 10637 10633 10630 10627 10624 10620 10616 10612 10608 10603 10598 10593 10588 10583 10578 10572 10566 10560 10553 10547 10540 10532 10525 10518 10510 10502 10493 10486 10479 10472 10466 10460 10454 10450 10444 10432 10420 10410 10396 10384 10375 10364 10353 10343 10333 10325 10319 10306 10289 10273 10257 10243 10237 10228 10214 10203
10707 10706 10705 10704 10704 10703 10702 10701 10699 10697 10695 10693 10691 10689 10687 10686 10684 10681 10678 10675 10672 10669 10665 10661 10658 10654 10650 10647 10644 10641 10637 10635 10632 10628 10625 10621 10617 10613 10609 10604 10599 10594 10588 10583 10577 10571 10565 10559 10553 10546 10539 10532 10524 10516 10510 10503 10496 10489 10481 10473 10465 10458 10450 10442 10436 10432 10422 10411 10402 10390 10378 10369 10360 10347 10334 10324 10315 10309 10298 10281 10263 10249 10233 10219 10211 10201 10190
10706 10705 10704 10703 10703 10702 10701 10699 10697 10696 10694 10692 10690 10688 10686 10684 10682 10679 10676 10673 10669 10666 10662 10659 10655 10652 10648 10645 10642 10639 10636 10633 10629 10626 10623 10619 10615 10610 10606 10601 10596 10590 10585 10579 10572 10566 10559 10553 10547 10539 10531 10524 10517 10509 10502 10495 10488 10482 10475 10467 10459 10450 10442 10431 10422 10417 10410 10399 10389 10381 10371 10360 10351 10338 10323 10310 10299 10290 10283 10270 10251 10240 10234 10222 10211 10202 10189
10704 10703 10703 10702 10702 10700 10699 10698 10696 10694 10693 10691 10689 10687 10685 10683 10680 10677 10674 10671 10667 10664 10660 10657 10653 10650 10647 10644 10641 10638 10634 10631 10628 10624 10620 10616 10612 10607 10603 10598 10593 10587 10582 10576 10569 10562 10555 10548 10541 10534 10526 10518 10511 10504 10496 10489 10482 10475 10468 10461 10453 10444 10435 10425 10413 10404 10397 10387 10374 10363 10355 10345 10336 10326 10311 10299 10288 10277 10274 10269 10249 10230 10223 10215 10203 10191 10176
10703 10702 10702 10701 10700 10699 10698 10696 10695 10694 10692 10690 10688 10686 10683 10681 10678 10676 10672 10669 10665 10662 10658 10655 10652 10648 10645 10642 10639 10636 10632 10629 10626 10622 10618 10614 10609 10605 10600 10595 10590 10584 10579 10573 10567 10560 10553 10546 10538 10531 10523 10514 10507 10500 10493 10486 10479 10471 10463 10454 10446 10437 10426 10416 10405 10394 10387 10380 10365 10347 10337 10328 10320 10311 10297 10287 10278 10265 10257 10254 10239 10215 10199 10189 10179 10172 10163
10702 10701 10701 10700 10699 10698 10696 10695 10694 10693 10691 10689 10687 10684 10682 10680 10677 10674 10670 10667 10663 10660 10657 10653 10650 10647 10644 10641 10637 10634 10630 10627 10623 10619 10615 10611 10607 10602 10597 10592 10586 10581 10575 10570 10564 10557 10551 10545 10538 10530 10522 10514 10506 10499 10491 10483 10475 10467 10458 10448 10438 10428 10418 10406 10396 10384 10373 10366 10357 10344 10334 10325 10312 10300 10287 10274 10261 10245 10232 10227 10220 10204 10189 10179 10171 10166 10160
10701 10700 10699 10699 10698 10697 10695 10694 10693 10692 10690 10688 10685 10683 10680 10678 10675 10672 10668 10665 10662 10658 10655 10652 10648 10645 10641 10638 10635 10632 10629 10625 10621 10617 10613 10609 10604 10599 10594 10589 10583 10577 10572 10566 10561 10555 10548 10541 10535 10529 10522 10514 10506 10498 10490 10480 10470 10461 10452 10443 10431 10421 10410 10397 10386 10375 10363 10355 10345 10333 10324 10317 10305 10291 10277 10265 10251 10237 10225 10219 10212 10202 10191 10181 10173 10165 10156
10700 10699 10698 10698 10697 10696 10694 10693 10692 10690 10688 10686 10683 10681 10678 10675 10673 10669 10666 10663 10660 10656 10653 10650 10646 10643 10639 10636 10633 10630 10627 10623 10619 10615 10611 10606 10602 10597 10591 10586 10580 10574 10568 10562 10556 10550 10543 10535 10528 10522 10515 10508 10500 10493 10486 10478 10469 10459 10449 10438 10427 10416 10405 10393 10382 10371 10358 10347 10337 10322 10309 10303 10296 10281 10265 10256 10245 10231 10220 10216 10211 10205 10196 10182 10169 10158 10147
10699 10698 10698 10697 10696 10694 10693 10692 10691 10689 10687 10684 10682 10679 10676 10673 10670 10667 10663 10660 10657 10654 10651 10647 10644 10640 10637 10634 10631 10628 10625 10621 10617 10613 10609 10604 10599 10594 10588 10582 10576 10570 10564 10558 10550 10544 10537 10530 10522 10514 10507 10499 10492 10486 10479 10472 10464 10456 10447 10436 10424 10413 10401 10390 10378 10366 10353 10343 10336 10325 10308 10297 10290 10277 10258 10248 10242 10229 10215 10206 10198 10191 10182 10166 10149 10139 10131
10698 10697 10697 10696 10694 10693 10692 10691 10689 10688 10685 10683 10680 10677 10674 10671 10668 10664 10661 10658 10655 10652 10649 10645 10642 10639 10635 10632 10629 10626 10623 10619 10615 10611 10606 10601 10596 10591 10585 10579 10573 10567 10560 10553 10546 10539 10533 10526 10518 10509 10501 10493 10485 10478 10471 10464 10454 10445 10437 10428 10418 10409 10398 10386 10374 10362 10351 10340 10332 10323 10310 10295 10286 10277 10259 10241 10233 10223 10209 10191 10171 10156 10150 10144 10131 10120 10115
10697 10697 10696 10695 10693 10692 10690 10689 10687 10686 10684 10681 10678 10675 10672 10669 10666 10662 10659 10656 10653 10650 10647 10644 10640 10637 10634 10630 10628 10625 10621 10617 10613 10609 10604 10599 10593 10588 10582 10575 10569 10563 10556 10549 10542 10535 10528 10521 10513 10505 10497 10488 10479 10470 10462 10454 10445 10434 10425 10417 10408 10400 10390 10378 10367 10357 10348 10336 10324 10315 10307 10293 10280 10272 10259 10235 10212 10196 10181 10167 10150 10133 10125 10125 10121 10110 10101
10697 10696 10695 10694 10692 10690 10689 10687 10685 10684 10681 10679 10676 10673 10669 10666 10663 10660 10658 10655 10652 10649 10645 10642 10639 10635 10632 10629 10626 10623 10619 10615 10611 10607 10601 10596 10591 10585 10579 10572 10566 10559 10553 10546 10539 10531 10523 10516 10508 10500 10492 10483 10474 10464 10454 10445 10436 10425 10414 10405 10396 10386 10378 10369 10359 10348 10337 10326 10312 10298 10288 10277 10263 10251 10239 10218 10191 10170 10157 10150 10141 10128 10116 10112 10112 10105 10092
10696 10695 10694 10693 10691 10689 10687 10686 10684 10681 10679 10677 10674 10671 10668 10665 10662 10659 10657 10654 10651 10648 10644 10641 10637 10634 10631 10628 10625 10621 10618 10613 10609 10604 10599 10594 10588 10582 10577 10570 10564 10557 10550 10542 10534 10526 10518 10510 10502 10494 10486 10477 10467 10458 10449 10439 10429 10418 10406 10396 10387 10377 10369 10361 10352 10338 10321 10307 10295 10281 10270 10262 10250 10232 10218 10205 10189 10173 10160 10150 10141 10128 10113 10102 10101 10100 10091
10695 10694 10693 10692 10690 10688 10686 10684 10682 10680 10677 10674 10672 10669 10666 10663 10661 10658 10655 10652 10649 10647 10643 10640 10636 10633 10630 10627 10623 10620 10616 10611 10606 10601 10596 10591 10585 10579 10573 10566 10559 10552 10544 10536 10527 10519 10511 10504 10496 10488 10480 10471 10462 10453 10444 10434 10424 10414 10402 10392 10383 10374 10364 10354 10347 10339 10324 10305 10290 10277 10265 10258 10251 10238 10226 10216 10203 10185 10169 10155 10144 10132 10116 10098 10090 10091 10089
10694 10693 10692 10691 10689 10687 10685 10683 10680 10678 10675 10673 10670 10667 10664 10662 10659 10656 10653 10651 10648 10645 10642 10638 10635 10632 10629 10626 10622 10618 10613 10609 10604 10598 10593 10587 10581 10575 10568 10561 10554 10546 10538 10530 10522 10514 10505 10498 10490 10482 10473 10465 10456 10447 10438 10429 10419 10410 10400 10388 10377 10367 10359 10350 10341 10337 10332 10323 10308 10292 10275 10263 10257 10248 10235 10222 10208 10190 10173 10162 10152 10142 10128 10108 10091 10086 10085
10693 10692 10691 10690 10688 10686 10684 10681 10679 10677 10675 10672 10669 10666 10663 10660 10657 10655 10652 10649 10646 10643 10640 10637 10634 10631 10628 10624 10620 10616 10611 10606 10601 10595 10590 10584 10578 10571 10564 10557 10549 10540 10533 10525 10517 10509 10501 10492 10484 10475 10466 10458 10449 10440 10431 10422 10413 10404 10395 10386 10376 10366 10357 10350 10339 10329 10324 10322 10317 10302 10279 10258 10246 10237 10228 10220 10213 10201 10185 10172 10160 10150 10138 10120 10097 10081 10076
10691 10690 10689 10688 10687 10685 10682 10680 10678 10676 10673 10670 10667 10664 10661 10658 10656 10653 10650 10647 10644 10642 10639 10637 10634 10630 10626 10622 10618 10613 10609 10604 10598 10593 10587 10581 10574 10568 10560 10552 10544 10536 10529 10521 10512 10504 10495 10486 10478 10469 10460 10451 10442 10432 10423 10415 10406 10398 10390 10382 10376 10367 10357 10349 10339 10327 10315 10308 10306 10303 10291 10272 10255 10244 10233 10225 10216 10205 10190 10176 10161 10148 10138 10126 10106 10082 10066
10690 10689 10688 10686 10685 10683 10681 10679 10677 10674 10672 10669 10666 10663 10660 10657 10654 10651 10649 10646 10644 10641 10639 10635 10632 10628 10624 10620 10615 10610 10605 10601 10596 10590 10585 10578 10571 10564 10556 10548 10540 10532 10524 10516 10507 10498 10489 10480 10471 10463 10454 10446 10436 10427 10417 10408 10399 10391 10383 10375 10368 10361 10352 10344 10337 10327 10316 10306 10299 10298 10295 10283 10266 10250 10236 10221 10206 10191 10177 10165 10153 10142 10130 10121 10111 10094 10071
10688 10687 10686 10685 10683 10682 10680 10678 10675 10673 10670 10667 10664 10662 10659 10656 10653 10650 10648 10645 10643 10640 10637 10633 10629 10626 10622 10617 10613 10608 10603 10599 10593 10587 10581 10574 10567 10560 10552 10544 10536 10528 10519 10510 10501 10492 10483 10474 10465 10457 10448 10439 10430 10421 10412 10403 10393 10384 10375 10367 10358 10351 10343 10337 10330 10321 10309 10295 10280 10268 10261 10252 10239 10224 10212 10201 10187 10171 10156 10144 10134 10124 10113 10104 10099 10092 10080
10686 10685 10684 10683 10681 10680 10678 10676 10674 10671 10668 10666 10663 10660 10658 10655 10652 10649 10647 10644 10641 10637 10634 10630 10627 10623 10619 10615 10611 10606 10601 10595 10589 10583 10576 10570 10563 10556 10548 10540 10532 10523 10513 10504 10495 10486 10478 10469 10460 10451 10442 10434 10425 10416 10406 10397 10388 10378 10369 10359 10348 10337 10326 10318 10312 10305 10294 10280 10262 10245 10235 10228 10218 10202 10189 10179 10168 10153 10138 10123 10111 10101 10094 10088 10082 10078 10074
10685 10684 10682 10681 10680 10678 10676 10674 10671 10669 10666 10664 10661 10659 10657 10654 10651 10648 10645 10642 10639 10635 10632 10628 10624 10621 10617 10613 10608 10603 10597 10591 10585 10579 10572 10565 10558 10551 10543 10535 10526 10518 10509 10500 10491 10482 10473 10465 10455 10447 10437 10428 10420 10411 10402 10393 10383 10375 10365 10354 10342 10329 10316 10305 10297 10292 10286 10276 10260 10241 10224 10215 10206 10193 10176 10163 10155 10145 10132 10119 10107 10096 10087 10080 10074 10069 10063
10683 10682 10681 10680 10678 10676 10674 10672 10670 10667 10665 10663 10660 10658 10655 10652 10649 10647 10643 10640 10637 10633 10630 10626 10622 10618 10614 10610 10605 10600 10594 10588 10581 10575 10568 10561 10553 10546 10538 10529 10521 10512 10504 10495 10487 10478 10469 10461 10452 10442 10434 10425 10416 10408 10399 10389 10379 10369 10359 10349 10338 10327 10315 10302 10290 10280 10273 10267 10259 10244 10225 10209 10201 10193 10180 10167 10157 10149 10138 10125 10112 10099 10087 10075 10066 10060 10056
10681 10681 10679 10678 10676 10675 10672 10670 10668 10666 10664 10662 10659 10656 10654 10651 10648 10645 10642 10639 10636 10632 10628 10624 10620 10615 10611 10606 10601 10595 10590 10584 10577 10570 10564 10556 10549 10541 10533 10524 10516 10508 10500 10491 10483 10474 10465 10456 10448 10439 10431 10423 10415 10406 10397 10388 10378 10367 10356 10346 10335 10323 10311 10300 10288 10274 10262 10254 10250 10245 10233 10216 10202 10193 10183 10171 10157 10145 10135 10124 10111 10097 10085 10071 10058 10048 10042
10680 10679 10678 10676 10674 10672 10670 10668 10667 10665 10663 10660 10658 10656 10653 10650 10647 10644 10641 10637 10634 10630 10626 10622 10617 10612 10608 10602 10597 10591 10585 10579 10572 10566 10559 10551 10544 10536 10528 10520 10512 10505 10496 10488 10479 10470 10461 10452 10444 10436 10428 10420 10412 10404 10396 10386 10376 10366 10356 10346 10334 10322 10308 10296 10284 10271 10258 10245 10235 10228 10222 10211 10197 10182 10170 10159 10148 10137 10126 10117 10108 10096 10082 10070 10057 10044 10034
10678 10677 10675 10674 10672 10670 10669 10667 10665 10663 10661 10659 10657 10654 10651 10648 10645 10642 10639 10636 10632 10628 10624 10619 10614 10609 10604 10599 10593 10586 10580 10573 10566 10560 10553 10546 10539 10532 10524 10517 10509 10501 10493 10485 10476 10467 10459 10450 10441 10433 10425 10418 10409 10401 10393 10383 10373 10364 10354 10344 10334 10324 10311 10296 10281 10268 10258 10247 10233 10220 10210 10201 10190 10177 10164 10154 10145 10135 10123 10114 10106 10098 10087 10075 10062 10050 10040
10676 10675 10673 10672 10670 10669 10667 10666 10664 10662 10660 10658 10655 10653 10650 10647 10644 10641 10637 10634 10630 10626 10621 10616 10610 10605 10600 10595 10589 10583 10576 10569 10562 10556 10549 10542 10536 10528 10521 10514 10506 10498 10490 10482 10473 10464 10456 10447 10439 10431 10422 10414 10405 10397 10389 10380 10370 10360 10351 10342 10333 10325 10316 10305 10292 10277 10264 10253 10243 10231 10218 10206 10195 10183 10170 10157 10147 10138 10128 10118 10109 10100 10089 10078 10065 10052 10041
10674 10673 10672 10670 10669 10668 10666 10665 10663 10661 10659 10657 10654 10652 10649 10646 10643 10639 10636 10632 10628 10623 10618 10613 10607 10602 10596 10590 10585 10579 10573 10566 10560 10554 10547 10540 10533 10525 10518 10510 10503 10495 10487 10479 10470 10461 10453 10444 10436 10427 10418 10409 10401 10393 10385 10376 10366 10356 10347 10338 10328 10320 10311 10304 10296 10284 10268 10254 10243 10233 10222 10211 10199 10187 10175 10162 10150 10139 10129 10119 10109 10099 10089 10077 10065 10052 10040
10672 10671 10670 10669 10668 10667 10665 10664 10662 10660 10658 10656 10653 10650 10647 10644 10641 10638 10634 10629 10625 10620 10615 10610 10606 10600 10594 10588 10582 10576 10570 10564 10558 10552 10545 10537 10530 10522 10514 10506 10499 10491 10484 10475 10467 10458 10449 10440 10431 10422 10414 10405 10397 10388 10378 10369 10360 10351 10341 10330 10320 10309 10298 10289 10282 10275 10264 10251 10239 10230 10223 10214 10203 10190 10177 10163 10148 10135 10122 10111 10101 10093 10085 10075 10064 10052 10041
10671 10670 10669 10668 10667 10666 10665 10663 10662 10660 10657 10655 10652 10649 10646 10643 10639 10635 10631 10626 10622 10617 10613 10608 10603 10598 10593 10587 10581 10575 10569 10563 10556 10549 10542 10535 10527 10519 10511 10504 10496 10488 10480 10472 10463 10455 10446 10436 10427 10419 10410 10401 10391 10381 10371 10361 10352 10342 10332 10322 10311 10300 10289 10279 10269 10261 10254 10246 10237 10227 10219 10210 10199 10185 10170 10154 10139 10124 10111 10099 10088 10079 10072 10064 10056 10047 10036
10670 10669 10668 10667 10666 10665 10664 10662 10661 10658 10656 10653 10650 10647 10644 10640 10636 10632 10628 10624 10619 10614 10610 10605 10600 10595 10590 10585 10580 10574 10567 10561 10554 10547 10540 10532 10525 10517 10509 10501 10493 10485 10477 10468 10460 10451 10442 10433 10424 10415 10406 10396 10386 10376 10365 10354 10343 10333 10323 10312 10302 10290 10279 10269 10258 10245 10234 10223 10213 10201 10190 10181 10172 10162 10151 10140 10127 10114 10100 10088 10079 10070 10062 10055 10048 10040 10030
10669 10668 10667 10666 10665 10664 10663 10661 10658 10656 10653 10650 10647 10644 10641 10638 10634 10630 10626 10621 10617 10612 10607 10603 10598 10593 10588 10583 10577 10571 10565 10558 10552 10544 10537 10529 10522 10515 10507 10499 10491 10482 10473 10465 10456 10447 10438 10430 10421 10411 10401 10391 10381 10372 10362 10351 10339 10329 10318 10307 10296 10284 10271 10259 10247 10235 10220 10205 10191 10177 10164 10153 10144 10137 10129 10122 10114 10106 10095 10083 10073 10064 10057 10048 10040 10032 10025
10668 10667 10666 10665 10664 10662 10660 10658 10656 10653 10651 10648 10645 10642 10639 10635 10632 10628 10624 10619 10615 10610 10606 10601 10596 10591 10585 10580 10574 10568 10561 10555 10548 10541 10534 10526 10519 10512 10505 10497 10488 10479 10470 10461 10453 10443 10434 10425 10416 10407 10397 10388 10378 10369 10359 10349 10337 10325 10314 10303 10293 10282 10269 10255 10241 10230 10219 10207 10193 10180 10166 10152 10140 10129 10120 10111 10103 10097 10090 10081 10070 10059 10052 10044 10035 10027 10019
10668 10667 10665 10664 10662 10660 10658 10656 10653 10651 10649 10646 10643 10640 10637 10633 10629 10625 10621 10617 10612 10608 10603 10599 10594 10589 10583 10577 10571 10565 10558 10552 10545 10538 10530 10523 10515 10508 10501 10493 10485 10476 10467 10458 10449 10440 10430 10421 10412 10403 10393 10384 10375 10366 10356 10346 10335 10324 10314 10304 10293 10282 10271 10259 10246 10233 10222 10212 10200 10187 10173 10159 10145 10131 10120 10110 10100 10090 10083 10077 10068 10058 10049 10041 10032 10024 10016
10667 10665 10663 10662 10660 10658 10656 10654 10652 10649 10647 10644 10641 10638 10634 10631 10627 10622 10618 10614 10610 10605 10600 10595 10590 10585 10579 10573 10567 10562 10556 10549 10542 10535 10527 10520 10512 10505 10498 10490 10481 10473 10464 10455 10446 10437 10427 10417 10408 10399 10390 10380 10371 10362 10352 10342 10331 10321 10310 10301 10291 10281 10269 10258 10248 10236 10222 10210 10198 10186 10173 10159 10145 10130 10117 10106 10097 10087 10078 10071 10064 10056 10047 10039 10031 10022 10014
10665 10663 10661 10660 10658 10656 10654 10652 10650 10647 10645 10642 10638 10635 10632 10628 10624 10620 10615 10611 10606 10601 10597 10592 10586 10580 10575 10570 10564 10558 10551 10545 10539 10531 10523 10516 10509 10502 10494 10486 10477 10469 10460 10451 10443 10434 10425 10415 10406 10397 10388 10378 10368 10358 10349 10339 10330 10319 10306 10295 10285 10275 10264 10253 10244 10234 10223 10210 10198 10185 10172 10159 10146 10131 10116 10103 10093 10085 10077 10068 10059 10050 10042 10035 10028 10020 10013
10663 10661 10660 10658 10656 10654 10652 10650 10647 10644 10641 10638 10635 10632 10628 10624 10620 10616 10612 10607 10603 10598 10593 10587 10582 10576 10571 10566 10560 10554 10547 10541 10534 10527 10520 10512 10505 10498 10491 10483 10474 10465 10456 10448 10440 10431 10422 10413 10404 10395 10386 10375 10365 10355 10346 10337 10328 10318 10307 10295 10282 10272 10262 10253 10244 10234 10224 10213 10201 10188 10175 10162 10149 10135 10120 10104 10091 10081 10072 10064 10056 10047 10038 10031 10023 10015 10007
10661 10659 10657 10656 10654 10651 10649 10647 10644 10641 10638 10635 10631 10628 10625 10621 10617 10613 10609 10604 10599 10594 10589 10584 10578 10573 10567 10561 10555 10549 10544 10537 10530 10523 10516 10509 10502 10494 10487 10479 10470 10462 10454 10445 10437 10429 10420 10411 10402 10392 10383 10372 10362 10352 10342 10332 10323 10314 10304 10293 10282 10271 10261 10252 10241 10231 10220 10209 10197 10185 10173 10161 10148 10135 10120 10103 10089 10077 10067 10057 10050 10043 10035 10028 10021 10013 10004
10659 10657 10655 10653 10651 10649 10646 10644 10641 10638 10635 10632 10628 10625 10621 10618 10614 10610 10605 10601 10596 10591 10586 10580 10575 10569 10564 10558 10551 10545 10539 10533 10526 10519 10512 10505 10497 10490 10483 10475 10467 10459 10451 10443 10435 10427 10418 10408 10398 10389 10379 10369 10359 10348 10336 10326 10316 10306 10296 10286 10277 10266 10255 10245 10234 10224 10214 10203 10192 10180 10168 10156 10145 10133 10119 10103 10087 10074 10064 10054 10044 10037 10030 10023 10017 10011 10001
10656 10655 10653 10651 10649 10646 10644 10641 10638 10635 10632 10629 10626 10622 10619 10615 10611 10607 10602 10597 10593 10588 10582 10577 10571 10566 10560 10554 10547 10541 10535 10528 10522 10515 10508 10500 10493 10485 10478 10470 10462 10455 10447 10439 10431 10423 10414 10404 10394 10384 10375 10365 10354 10344 10332 10321 10311 10300 10289 10279 10270 10260 10250 10239 10229 10219 10209 10198 10186 10175 10164 10152 10140 10130 10118 10103 10086 10071 10061 10052 10043 10034 10026 10018 10011 10004 9996
10654 10652 10651 10649 10646 10644 10641 10638 10635 10632 10629 10626 10623 10619 10615 10612 10607 10603 10599 10594 10589 10584 10578 10573 10568 10562 10556 10549 10543 10537 10530 10524 10518 10511 10504 10496 10489 10481 10474 10466 10458 10449 10441 10433 10425 10417 10409 10399 10389 10379 10369 10359 10349 10338 10326 10316 10305 10295 10284 10274 10264 10254 10244 10233 10223 10213 10203 10191 10180 10168 10158 10147 10135 10124 10114 10104 10089 10073 10059 10049 10041 10031 10020 10012 10005 9999 9993
10652 10650 10648 10646 10643 10641 10638 10635 10632 10629 10626 10622 10619 10616 10612 10608 10604 10600 10595 10590 10585 10579 10574 10569 10563 10558 10552 10545 10539 10532 10526 10519 10513 10507 10499 10492 10484 10477 10469 10461 10453 10445 10437 10428 10420 10412 10404 10394 10385 10374 10364 10353 10343 10332 10321 10309 10299 10289 10278 10267 10256 10245 10235 10225 10215 10205 10195 10184 10173 10162 10150 10140 10129 10119 10109 10101 10090 10075 10057 10043 10033 10024 10013 10003 9998 9996 9992
10650 10648 10646 10643 10641 10638 10635 10632 10629 10625 10622 10619 10616 10612 10608 10604 10600 10596 10591 10586 10581 10575 10569 10564 10559 10554 10547 10541 10535 10528 10522 10515 10508 10501 10495 10487 10479 10471 10464 10456 10448 10440 10431 10423 10415 10407 10398 10389 10380 10370 10359 10348 10338 10327 10316 10305 10294 10284 10273 10262 10250 10238 10227 10216 10207 10197 10188 10178 10168 10157 10145 10134 10124 10114 10104 10094 10084 10072 10057 10042 10029 10020 10012 10003 9996 9994 9993
10647 10645 10643 10640 10637 10634 10631 10628 10625 10622 10619 10616 10612 10609 10605 10600 10596 10592 10587 10582 10576 10571 10565 10560 10555 10549 10543 10537 10531 10525 10518 10511 10503 10496 10490 10482 10475 10467 10459 10451 10443 10435 10426 10417 10408 10400 10391 10382 10374 10365 10355 10344 10333 10323 10311 10300 10289 10279 10268 10257 10246 10234 10223 10211 10200 10191 10182 10172 10163 10153 10143 10131 10120 10110 10099 10088 10078 10070 10061 10049 10037 10027 10019 10010 10000 9994 9991
10644 10642 10639 10637 10634 10631 10628 10625 10621 10618 10615 10611 10608 10604 10601 10596 10592 10588 10583 10578 10572 10566 10560 10554 10549 10544 10538 10533 10527 10521 10514 10507 10499 10492 10485 10478 10470 10462 10454 10446 10437 10429 10421 10412 10402 10393 10385 10376 10367 10358 10348 10338 10328 10319 10308 10296 10284 10273 10263 10253 10242 10231 10219 10206 10194 10184 10174 10166 10157 10148 10139 10128 10117 10105 10095 10085 10076 10069 10062 10055 10044 10032 10022 10011 9999 9990 9985